Погода в Погадаеве

Россия / Забайкальский край     50°19′52″N   118°40′11″E
темп.,
°C
ветер,
м/с
пор.,
м/с
влажн.,
%
обл.,
%
осадки,
мм/ч
давл.,
гПа
погр.,
м
18 апреля, вс
вс1800:00+6ююз514353 0.0 1008280
03:00+3ю411493 0.0 1008204
06:00+1ююв33600 0.0 100736
09:00+5ю34440 0.0 1005352
12:00+12ююз442989 0.0 1002725
15:00+17зюз4722100 0.0 9991976
18:00+18зсз99210 0.0 9982526
21:00+10сз1115210 0.0 1005892
19 апреля, пн
пн1900:00+3ссз1015390 0.0 10111012
03:000ссз713290 0.0 1016911
06:00−4ссз713275 0.0 1020676
09:00−2с79260 0.0 1022881
12:00+2с56190 0.0 10211340
15:00+5сз35125 0.0 10191889
18:00+7зсз3690 0.0 10182420
21:00+4з34152 0.0 101963
20 апреля, вт
вт2000:00+2св11200 0.0 102010
03:000ююв22205 0.0 102013
06:00−1ю332759 0.0 101922
09:00+5ю6121712 0.0 1016550
12:00+12ююз8101644 0.0 1012951
15:00+15юз81016100 0.0 10081361
18:00+16юз79175 0.0 10071270
21:00+12ю4825100 0.0 1007113
21 апреля, ср
ср2100:00+11ю3531100 0.0 1007111
03:00+9ю34451 0.0 100744
06:00+6ююв22505 0.0 100712
09:00+12ююв353447 0.0 1006293
12:00+20ю681927 0.0 10041098
15:00+24ююз78120 0.0 10011814
18:00+24юз56121 0.0 10011398
21:00+17ююз33175 0.0 100331
22 апреля, чт
чт2200:00+15ююв111974 0.0 100411
03:00+13юв12235 0.0 100510
06:00+9всв114480 0.0 100711
09:00+12ссв684249 0.0 1010464
12:00+15ссв88355 0.0 1013898
15:00+18ссв772838 0.0 10131126
18:00+16ссв7731100 0.0 1015954
21:00+11ссв91341100 0.0 1019510